Location: Atlantic Beach
(40.5890°N, 73.7290°W)
Time: 04:09:43
(UTC+00:00)

Atlas Centaur 2 - Pass Details

Date: 29 October 2020
Orbit: 459 x 1309 km, 30.4° (Epoch: 23 November)

Event Time Altitude Azimuth Distance (km) Brightness Sun altitude
Rises 22:18:58 0° 241° (WSW) 3,979 7.5 -5.3°
Reaches altitude 10° 22:21:52 10° 233° (SW) 3,116 6.4 -5.8°
Maximum altitude 22:29:03 37° 169° (S) 1,873 4.0 -7.2°
Drops below altitude 10° 22:36:42 10° 106° (ESE) 3,317 4.7 -8.6°
Enters shadow 22:37:43 - 103° (ESE) 3,612 4.9 -8.8°
